www.pogodaiklimat.ru

Погода и климат >> Архив погоды >> Иран >> Сараван


ПОГОДА в Сараване

  • Прогноз погоды в Сараване
  • Монитор погоды в Сараване

АРХИВ ПОГОДЫ в Сараване

Время (UTC), дата Ветер
(напр.,м/с)
 
Видим.   Явления Облачность Т
(С)
Тd
(С)
f
(%)
Тe
(С)
Тes
(С)
Комфортность P
(гПа)
Po
(гПа)
Тmin
(С)
Tmax
(С)
R
(мм)
R24
(мм)
S
(см)
15 20.05 штиль 0 10 км 6/6 1050 м
[Cb calv Ac As]
+25.3 +13.5 48 +27 +27 жарко 1006.8 881.4 +31.4
18 20.05 штиль 0 10 км 4/3 1200 м
[Sc diur, vesp Ac trans]
+24.2 +14.0 53 +27 +27 жарко 1007.0 882.8
21 20.05 СВ 4 10 км 1/0
[Ac trans]
+21.9 +12.2 54 +24 +24 комфорт 1007.3 882.5
00 21.05 штиль 0 10 км 1/0
[Ac trans]
+19.9 +12.4 62 +21 +21 комфорт 1008.6 882.2
03 21.05 штиль 0 5000 м мгла 5/0
[Ac As Ci sp]
+22.4 +14.0 59 +26 +29 жарко 1008.8 883.1 +18.8
06 21.05 штиль 0 5000 м мгла ясно +27.6 +14.1 44 +30 +54 опасность
солнечного
удара
1010.1 883.6
09 21.05 штиль 0 5000 м мгла 3/3 1200 м
[Cu med, cong]
+32.0 +9.4 25 +31 +50 жарко 1007.5 881.6
12 21.05 З 4 6000 м мгла 4/4 1200 м
[Cu med, cong]
+33.6 +6.2 18 +31 +34 жарко 1005.3 879.3
15 21.05 З 7 8000 м мгла 1/1 1200 м
[Cu med, cong]
+29.6 +8.2 26 +29 +29 жарко 1006.5 879.7 +34.0
21 21.05 штиль 0 10 км ясно +24.6 +14.4 53 +27 +27 жарко 1006.0 881.1
00 22.05 штиль 0 10 км 4/0
[Ci sp]
+23.1 +9.5 42 +25 +25 комфорт 1006.2 880.3
03 22.05 штиль 0 10 км ясно +25.1 +12.0 44 +27 +32 жарко 1006.7 881.2 +22.8
06 22.05 штиль 0 12 км 4/3 1200 м
[Cu med, cong Ac trans]
+29.5 +11.2 32 +30 +45 жарко 1006.2 881.4
09 22.05 ЮЗ 2 8000 м мгла 5/5 1200 м
[Cu med, cong]
+31.8 +10.6 27 +32 +42 жарко 1004.3 879.4
12 22.05 СВ 7 8000 м мгла 6/6 1050 м
[Cb calv]
+28.9 +12.8 37 +30 +31 жарко 1003.1 877.6
15 22.05 СВ 5 8000 м мгла 6/6 1050 м
[Cb calv]
+27.2 +12.2 39 +28 +28 жарко 1004.4 878.8 +33.5
18 22.05 штиль 0 10 км 4/4 1200 м
[Cu med, cong]
+25.5 +11.1 40 +27 +27 жарко 1005.6 880.3
21 22.05 штиль 0 10 км ясно +22.7 +10.5 46 +25 +25 комфорт 1005.2 879.8
00 23.05 штиль 0 10 км ясно +22.9 +11.4 48 +25 +25 комфорт 1005.2 879.3
03 23.05 СЗ 2 10 км ясно +22.7 +11.6 49 +25 +29 комфорт 1007.5 881.0 +20.4
06 23.05 штиль 0 10 км ясно +28.2 +11.6 36 +29 +53 опасность
солнечного
удара
1007.0 881.3
09 23.05 СВ 3 10 км 5/5 1050 м
[Sc diur, vesp]
+28.7 +11.9 35 +30 +38 жарко 1005.5 879.5
12 23.05 СВ 7 10 км 4/1 1050 м
[Cb calv]
+28.5 +12.3 37 +30 +31 жарко 1004.2 878.4
15 23.05 СВ 4 12 км 4/1 1050 м
[Cu med, cong]
+27.2 +10.4 35 +28 +28 жарко 1005.9 879.5 +32.4
18 23.05 СВ 4 12 км 1/1 1200 м
[Sc diur, vesp]
+25.3 +9.7 37 +26 +26 жарко 1006.6 880.8
21 23.05 штиль 0 12 км ясно +24.0 +9.4 40 +25 +25 комфорт 1007.2 881.2
00 24.05 штиль 0 12 км ясно +20.6 +9.7 50 +22 +22 комфорт 1008.3 881.4
03 24.05 штиль 0 15 км ясно +23.1 +10.4 45 +25 +30 комфорт 1009.7 882.9 +19.4
06 24.05 В 2 15 км ясно +28.9 +7.0 25 +28 +46 жарко 1010.0 883.8
09 24.05 В 2 15 км 3/3 1200 м
[Cu hum]
+31.8 +7.1 21 +30 +44 жарко 1008.5 882.8
12 24.05 штиль 0 15 км 3/3 1200 м
[Cu hum]
+34.0 +6.3 18 +32 +38 жарко 1007.2 881.4
15 24.05 СВ 3 15 км 1/1 1200 м
[Sc diur, vesp]
+30.1 +3.5 18 +28 +28 жарко 1008.5 882.2 +34.4
18 24.05 СВ 5 15 км ясно +27.4 +2.3 20 +26 +26 жарко 1009.4 883.6
21 24.05 СВ 2 15 км ясно +25.3 +1.5 21 +24 +24 комфорт 1008.6 883.0
00 25.05 штиль 0 15 км ясно +21.3 +1.5 27 +21 +21 комфорт 1008.5 882.6
03 25.05 С 2 15 км ясно +23.9 +2.7 25 +23 +27 комфорт 1010.6 884.2 +19.3
06 25.05 СВ 4 15 км ясно +30.2 +3.0 18 +28 +40 жарко 1010.4 884.7
09 25.05 С 3 15 км ясно +33.2 +3.3 15 +30 +47 жарко 1008.5 883.2
12 25.05 С 4 15 км 3/3 1200 м
[Cu hum]
+33.8 +2.2 14 +31 +34 жарко 1007.5 881.7
15 25.05 В 6 15 км ясно +31.9 +2.2 15 +29 +29 жарко 1006.9 881.3 +34.5
18 25.05 СВ 2 15 км ясно +28.7 +2.3 18 +27 +27 жарко 1006.7 881.7
21 25.05 СВ 3 15 км ясно +27.7 +2.6 20 +26 +26 жарко 1005.2 880.8
00 26.05 штиль 0 15 км ясно +22.3 +3.0 28 +22 +22 комфорт 1006.4 880.9
03 26.05 СЗ 2 15 км ясно +25.6 +4.0 25 +25 +29 комфорт 1007.9 882.5 +22.0
06 26.05 СВ 5 15 км ясно +30.9 +4.2 18 +29 +38 жарко 1007.9 882.9
09 26.05 штиль 0 15 км 3/3 1200 м
[Cu med, cong]
+34.5 +4.2 15 +32 +51 опасность
солнечного
удара
1005.6 881.4
12 26.05 В 2 12 км 4/4 1200 м
[Cu med, cong]
+34.4 +4.0 15 +32 +36 жарко 1004.7 879.6
15 26.05 СВ 6 15 км 4/4 1200 м
[Cu med, cong]
+31.4 +2.6 16 +29 +29 жарко 1005.1 879.9 +35.0
18 26.05 СВ 7 15 км ясно +28.7 +2.0 18 +27 +27 жарко 1006.1 881.3
21 26.05 штиль 0 15 км ясно +27.3 +2.2 20 +26 +26 жарко 1004.9 880.7
00 27.05 штиль 0 15 км ясно +22.5 +2.8 27 +22 +22 комфорт 1006.0 880.7
03 27.05 штиль 0 10 км ясно +24.8 +4.4 27 +24 +29 комфорт 1007.5 881.9 +20.6
06 27.05 штиль 0 15 км ясно +32.0 +3.1 16 +29 +54 опасность
солнечного
удара
1006.8 882.1
09 27.05 ЮЗ 5 15 км 1/1 1200 м
[Cu hum]
+35.4 +1.1 11 +32 +42 жарко 1004.3 880.3
12 27.05 СВ 3 15 км 3/3 1200 м
[Cu med, cong]
+36.5 +0.8 11 +33 +37 жарко 1003.1 878.5

 

Местоположение метеостанции Сараван (Иран): широта 27.33 долгота 62.33 высота над уровнем моря 1195 м.

В архиве по умолчанию представлена погода в Сараване за последнюю неделю. Архивные данные за месяц целиком и за предыдущие месяцы, начиная с января 2011 года, Вы можете получить, выбрав интересующий диапазон дат из раскрывающегося списка и нажав кнопку "Ввод!".


*Определитесь, кто Вы:
робот инопланетянин человек

Внимание! Время в таблицах - всемирное. Для получения местного времени необходимо прибавить поправку, которая равна 3.5 ч.

Смотрите также архив погоды в соседних городах и на ближайших метеорологических станциях:

Погода в Ираншехре (Иран) (162 км)
Погода в Нок-Кунди (Пакистан) (171 км)
Погода в Панджгуре (Пакистан) (180 км)
Погода в Гавадаре (Пакистан) (245 км)
Погода в Пасни (Пакистан) (256 км)
Погода в Дживани (Пакистан) (257 км)
Погода в Дал Бандин (Пакистан) (266 км)
Погода в Захедане (Иран) (277 км)
Погода в Аэропорту Конарак (Иран) (285 км)
Погода в Ормаре (Пакистан) (321 км)

Пояснения к столбцам:

Ветер - указаны скорость ветра в м/с - средняя за 10 мин, порывы в срок и между сроками (в фигурных скобках) и направление, откуда дует ветер: С - северный, СВ - северо-восточный, В - восточный, ЮВ - юго-восточный, Ю - южный, ЮЗ - юго-западный, З - западный, СЗ - северо-западный.
Видимость - горизонтальная дальность видимости в метрах или километрах. При видимости от 1 до 10 км при отсутствии осадков обычно наблюдается дымка, при ухудшении видимости до 1 км и менее - туман. В сухую погоду видимость может ухудшаться дымом, пылью или мглою.
Явления - указаны атмосферные явления, наблюдавшиеся в срок или в последний час перед сроком; фигурными скобками обозначены явления, наблюдавшиеся между сроками (за 1-3 часа до срока); квадратными скобками обозначены град или гололедные отложения с указанием их диаметра в мм.
Облачность - указаны через наклонную черту общая и нижняя облачность в баллах и высота нижней границы облаков в метрах; квадратными скобками обозначены формы облаков: Ci - перистые, Cs - перисто-слоистые, Cc - перисто-кучевые, Ac - высококучевые, As - высокослоистые, Sc - слоисто-кучевые, Ns - слоисто-дождевые, Cu - кучевые, Cb - кучево-дождевые. Подробнее классификацию облаков см. в Атласе облаков (PDF).
T - Температура воздуха - температура, измеренная на высоте 2 м над землей.
Td - Температура точки росы - температура, при понижении до которой содержащийся в воздухе водяной пар достигнет насыщения.
f - Относительная влажность воздуха - влажноcть воздуха, измеренная на высоте 2 м над землей.
Te - Эффективная температура - температура, которую ощущает одетый по сезону человек в тени. Характеристика душности погоды. При расчете учитывается влияние влажности воздуха и скорости ветра на теплоощущения человека.
Tes - Эффективная температура на солнце - температура, которую ощущает человек, с поправкой на солнечный нагрев. Характеристика знойности погоды. Зависит от высоты солнца над горизонтом, облачности и скорости ветра. Ночью, в пасмурную погоду, а также при ветре 12 м/с и более поправка равна нулю.
P - Атмосферное давление - приведенное к уровню моря атмосферное давление.
Po - Атмосферное давление - измеренное на уровне метеостанции атмосферное давление.
Tmin - Минимальная температура - минимум температуры воздуха на высоте 2 м над землей.
Tmax - Максимальная температура - максимум температуры воздуха на высоте 2 м над землей.
R - Количество осадков - Количество выпавших осадков за период времени, мм. При наведении курсора мыши на число - период времени, за который выпало указанное количество осадков.
R24 - Количество осадков - Количество выпавших осадков за 24 часа, мм.
S - Снежный покров - Высота снежного покрова, см. При наведении курсора мыши на число - состояние снежного покрова и степень покрытия местности в баллах.